Temp
7 7 7 7 7 7 7 7 7 7 7 7 7 7 7 7 7 7 7 8 8 8 8 8 8 8 8 8 8 8 10 11 13 15 17 20 21 20 20 20 20 19 19 20 21 22 23 23 24 23 24 25 25 26 25 25 26 26 26 25 24 25 26 27 28 28 27 28 28 28 28 27 27 28 27 27 28 29 28 28 27 27 28 28 28 27 25 23
7 7 7 7 7 7 7 7 7 7 7 7 7 7 7 7 7 7 8 8 8 8 8 8 8 8 8 8 8 9 11 12 14 17 19 20 20 20 20 20 20 19 20 21 22 23 24 24 24 24 24 25 25 25 25 25 25 25 26 25 25 27 28 28 28 27 27 27 28 28 28 27 27 27 27 27 28 28 27 27 26 26 26 27 27 26 25 23
7 7 7 7 7 7 7 7 7 7 7 7 7 7 7 7 7 7 7 8 8 8 8 8 8 8 8 8 9 10 11 13 17 20 20 20 19 20 20 20 20 19 20 22 23 24 24 24 24 24 24 25 25 25 25 25 25 26 26 25 26 28 27 27 27 27 27 27 27 27 28 28 27 27 27 27 28 28 28 27 27 27 26 26 26 25 24 23
7 7 7 7 7 7 7 8 8 8 8 8 7 7 7 7 7 7 7 7 8 8 8 8 8 8 8 9 10 10 11 16 21 22 21 20 20 19 20 20 20 20 21 22 22 23 23 24 24 24 25 25 25 25 25 25 25 25 25 25 27 27 26 27 27 27 27 27 27 27 27 28 27 27 27 27 28 28 29 28 28 27 27 26 25 25 24 24
7 7 7 7 7 8 8 8 8 8 8 8 8 8 8 7 8 8 8 7 7 8 8 8 8 9 9 11 12 11 13 19 22 22 20 20 20 19 19 20 19 20 21 22 22 23 23 24 24 24 24 25 25 25 25 25 25 25 25 26 27 27 26 27 27 27 27 27 27 27 27 27 27 27 27 27 28 28 29 29 28 28 27 26 25 24 24 24
7 7 7 7 7 8 8 8 8 8 8 8 8 8 8 8 8 8 8 7 7 8 8 8 9 10 11 12 12 11 16 21 22 21 20 21 21 19 19 19 20 20 21 22 23 23 24 24 24 24 24 25 25 25 25 25 25 25 26 27 26 26 26 27 27 27 27 27 27 27 27 27 27 27 27 27 28 28 28 28 27 27 27 26 26 25 24 24
7 7 7 7 7 8 8 8 8 8 8 8 8 8 8 8 8 8 8 7 7 8 8 9 10 11 12 12 12 14 19 23 21 20 20 21 21 19 19 19 20 20 22 23 23 24 24 24 24 24 25 25 25 25 25 25 25 25 26 26 26 26 26 26 27 27 27 26 27 27 27 27 27 28 27 27 28 27 27 28 27 27 27 26 25 24 24 23
7 7 7 7 7 7 7 8 8 8 8 8 8 8 8 8 8 8 8 7 7 8 9 11 12 12 12 12 14 19 22 22 21 20 20 20 20 19 19 19 20 21 22 23 24 24 24 24 24 25 25 25 25 25 24 25 25 25 25 26 26 26 26 27 27 27 27 27 27 27 26 27 27 27 27 27 28 27 27 27 27 26 26 25 24 24 24 23
7 7 7 7 7 8 8 9 8 8 8 8 8 8 8 8 8 8 7 7 8 9 11 12 13 13 12 12 17 22 22 21 20 19 19 20 20 19 20 20 20 22 23 23 24 24 24 24 24 24 25 24 24 25 25 24 25 25 26 26 26 26 27 27 27 27 27 27 27 27 27 27 27 26 27 28 27 27 27 27 26 26 25 25 24 23 23 23
7 7 7 8 9 10 11 11 10 8 8 8 8 8 8 8 8 8 8 8 9 11 13 14 14 13 12 13 18 22 21 20 20 20 19 19 20 19 20 21 21 22 23 23 23 24 24 24 24 25 25 25 24 25 25 25 25 25 25 26 26 26 27 27 26 26 27 27 26 27 27 28 26 26 27 27 26 26 27 26 26 25 25 24 24 23 23 22
7 8 10 11 11 12 13 12 11 10 10 9 8 8 8 8 8 8 9 11 12 13 13 14 14 13 13 15 20 22 21 20 20 20 19 19 19 20 21 21 21 22 23 23 23 24 24 24 25 25 25 24 24 24 25 25 25 25 25 26 26 27 27 26 26 26 27 27 26 27 28 28 27 27 28 27 26 26 26 26 26 25 25 24 24 23 22 23
8 12 13 14 14 13 13 13 13 12 12 11 10 9 9 9 8 8 11 13 13 14 14 14 14 12 13 17 21 22 20 20 20 20 19 19 20 20 21 21 21 22 23 24 24 24 23 24 24 24 24 24 25 25 25 25 25 25 25 25 26 27 27 26 27 26 27 27 26 28 27 27 28 27 27 26 26 27 26 26 26 26 25 24 24 23 23 23
9 13 15 15 14 14 14 14 14 13 13 12 12 11 10 10 10 10 11 12 13 14 14 14 13 10 13 20 22 20 20 20 20 20 19 19 20 20 20 20 21 21 22 24 24 23 23 23 23 24 24 24 25 25 24 25 25 25 26 25 26 27 26 27 27 27 28 26 26 27 24 26 29 28 26 25 25 26 26 27 26 26 25 24 23 23 23 23
10 13 15 15 15 14 15 15 14 14 14 13 13 12 12 12 11 11 11 12 13 14 14 14 12 10 15 21 21 20 20 19 19 20 20 20 21 21 20 20 20 21 21 22 22 22 22 22 23 24 24 24 25 25 25 25 25 26 26 26 26 25 24 27 27 27 27 26 27 27 24 25 29 27 26 25 25 26 27 27 27 26 25 24 24 23 24 24
11 14 15 15 15 15 16 15 15 15 14 14 14 13 13 13 13 12 12 12 13 14 13 12 11 12 19 22 21 20 20 19 20 21 20 21 22 22 22 21 21 21 21 21 21 21 22 22 23 24 24 24 24 24 25 26 26 26 24 23 25 24 24 26 27 27 27 26 28 27 24 26 28 27 26 25 25 26 27 27 27 26 25 25 24 24 24 24
12 14 15 15 15 16 16 15 15 15 15 15 14 14 13 14 13 13 13 12 13 13 12 13 13 14 20 23 21 20 21 21 22 21 21 21 23 23 22 22 21 21 21 21 21 21 22 23 23 24 24 25 25 25 25 25 24 26 24 22 24 24 24 25 26 27 27 27 28 27 26 27 28 27 26 25 25 26 27 27 26 26 25 25 25 25 25 25
12 14 15 15 16 16 16 16 16 15 15 15 14 14 14 14 13 13 13 12 12 12 11 14 15 15 20 22 21 21 23 23 22 21 21 21 22 23 23 23 23 22 22 21 21 22 23 23 23 23 24 25 25 25 24 22 22 24 25 23 23 24 24 24 25 26 27 27 27 27 27 27 27 27 26 25 26 26 27 27 26 26 25 25 25 25 25 25
13 14 15 15 16 16 16 16 16 16 15 14 14 14 14 14 13 12 12 12 11 11 12 13 15 17 21 22 22 23 23 22 21 21 21 20 21 22 23 24 24 23 23 22 22 23 23 23 24 24 25 25 25 25 22 21 22 22 23 23 23 24 24 24 25 26 26 27 27 26 27 27 27 27 27 26 26 26 27 27 26 26 25 25 25 26 26 25
13 14 15 16 16 16 16 16 16 16 15 14 14 13 13 13 12 12 12 13 14 16 18 18 18 20 22 22 23 23 22 21 21 21 22 21 21 22 23 24 24 23 23 23 23 23 24 24 24 23 24 24 24 25 23 23 24 23 24 23 23 23 24 25 25 25 25 26 27 26 26 27 27 27 27 26 25 25 26 26 25 25 25 25 25 26 26 25
13 14 15 16 16 16 16 16 16 16 15 14 12 12 14 15 16 16 16 16 19 21 21 22 22 22 22 23 23 23 22 21 22 23 22 22 22 23 24 24 24 24 24 24 23 23 23 23 23 24 24 24 23 23 23 23 24 24 24 24 24 23 24 25 25 25 25 25 26 26 26 26 27 27 26 25 25 25 25 25 25 25 25 25 26 26 26 25
13 14 15 16 16 17 16 16 16 15 15 14 12 15 19 19 20 20 19 20 22 22 21 22 21 21 22 23 23 23 22 23 23 24 22 22 23 24 24 24 23 24 24 24 23 22 22 23 23 24 23 23 22 22 22 23 23 24 24 23 23 23 24 25 25 24 25 24 25 26 25 26 27 26 26 25 24 25 25 25 25 25 25 25 26 26 25 25
13 15 16 16 16 16 16 16 16 15 15 14 13 18 21 20 19 19 19 20 22 22 21 21 21 21 22 22 22 22 22 23 24 23 22 22 24 24 24 24 23 24 23 23 23 22 22 23 24 23 22 22 21 22 22 23 23 23 24 23 23 24 24 24 24 24 24 24 25 25 25 26 27 26 26 25 25 25 25 25 25 25 25 25 26 26 25 25
14 15 15 16 16 16 16 16 16 15 15 14 17 21 20 18 18 18 18 20 21 22 21 21 21 22 23 23 22 21 23 24 24 24 23 22 24 24 24 24 24 24 23 23 23 22 22 23 24 22 22 22 21 21 22 23 23 23 24 23 22 24 24 22 23 24 24 23 24 25 24 25 27 26 26 26 25 25 25 24 25 25 25 26 26 26 25 25
14 15 15 16 16 16 16 16 15 15 15 16 18 20 18 18 18 18 18 20 21 22 22 21 22 23 23 22 22 22 24 24 24 24 24 23 24 24 24 24 24 23 24 24 23 23 23 23 23 22 21 22 22 22 22 23 23 23 23 23 23 24 23 23 23 24 24 23 23 24 23 24 26 26 26 26 25 24 24 24 24 25 25 25 25 25 25 25
14 15 15 15 16 16 15 15 14 15 16 18 19 19 18 17 18 17 19 20 21 22 22 21 22 23 23 22 22 23 24 24 24 24 24 24 24 24 24 24 23 24 24 23 23 24 23 21 21 22 22 22 23 22 23 23 23 23 23 24 24 24 24 24 24 23 22 22 23 23 21 22 25 26 26 26 25 25 25 25 25 25 25 25 24 24 24 25
15 15 15 15 15 15 15 16 17 16 18 20 19 18 17 17 17 17 18 20 21 22 22 22 22 22 23 23 23 23 23 23 24 24 23 24 24 24 24 23 23 23 23 23 23 24 23 20 20 22 22 22 23 23 24 23 22 22 23 24 24 24 24 23 23 22 21 21 23 23 21 21 23 24 25 26 25 26 25 25 25 26 25 25 25 25 25 25
15 15 15 15 15 15 15 17 18 17 19 20 19 17 18 18 18 17 19 20 21 21 22 22 22 22 22 23 24 23 22 23 23 23 23 23 24 24 23 23 24 23 23 23 22 22 22 22 21 22 22 23 23 23 24 24 23 22 23 24 24 24 23 23 23 22 22 22 22 23 23 21 21 23 25 25 25 26 25 25 25 25 25 25 25 26 26 25
15 16 15 16 15 15 16 16 17 20 21 19 18 18 18 18 18 18 19 19 20 22 23 23 22 22 23 23 23 23 23 23 23 23 23 23 23 24 23 24 24 23 23 22 21 21 22 22 22 22 22 23 24 24 24 23 23 22 22 24 24 24 24 24 23 22 23 22 21 22 23 21 21 23 25 25 24 25 25 25 25 25 25 25 25 25 25 25
16 16 16 16 15 15 16 15 17 20 20 18 18 18 18 18 18 19 20 19 20 22 23 23 22 22 23 23 23 23 23 24 23 23 23 23 23 24 23 24 24 23 23 23 22 22 22 22 22 23 23 23 24 24 23 23 23 22 22 23 24 24 24 23 23 23 22 21 20 21 22 21 21 22 24 24 24 24 25 25 25 25 25 25 24 24 24 24
16 17 16 16 16 15 16 16 17 18 18 18 18 18 18 18 19 19 19 19 21 22 23 23 22 22 23 23 23 23 23 23 23 23 23 23 23 23 23 23 23 23 23 23 23 23 22 21 21 22 23 24 23 22 21 22 22 22 23 23 23 23 23 23 23 22 21 20 21 21 21 21 20 21 23 23 23 23 24 25 25 24 25 24 24 23 24 24
17 17 17 16 16 16 17 18 18 18 18 18 18 18 18 19 20 20 19 20 21 22 23 23 23 23 23 23 23 23 23 23 23 23 23 23 23 23 23 22 23 23 23 23 23 23 23 21 21 23 23 23 23 22 21 21 22 22 23 23 22 22 22 22 22 21 20 20 21 21 22 21 20 21 23 23 23 23 23 23 23 23 24 23 23 23 23 23
18 18 18 17 17 17 18 19 19 18 18 18 18 19 20 20 20 20 20 21 21 22 22 22 22 23 23 23 23 23 23 23 23 23 23 23 23 23 23 23 23 22 21 21 22 22 23 24 23 23 22 22 23 23 22 22 22 23 23 22 21 20 20 20 20 21 20 20 21 21 21 21 21 22 23 23 23 23 22 22 22 22 22 22 22 22 22 22
18 18 18 18 17 17 17 18 18 18 18 18 19 20 20 19 19 20 21 21 20 21 22 22 22 22 22 23 22 22 23 22 22 23 23 23 23 22 22 22 22 21 21 21 21 21 22 24 24 23 22 22 23 23 22 22 22 22 22 21 20 20 20 20 20 20 20 20 21 21 21 20 21 22 23 22 22 22 21 22 21 21 21 21 21 22 22 22
18 18 18 18 17 17 17 17 18 18 18 18 20 21 19 19 19 19 20 21 21 21 22 21 22 22 22 22 21 22 22 22 22 23 23 23 23 22 22 21 22 22 22 21 21 21 21 21 22 23 22 22 23 23 23 23 23 23 24 23 21 20 20 20 20 20 20 20 20 20 20 20 21 21 22 22 21 22 22 21 21 21 21 21 21 22 22 22
17 18 18 17 17 17 17 18 18 18 18 19 21 20 19 19 20 20 20 21 22 22 22 21 22 22 22 22 21 21 21 21 22 23 23 23 22 22 22 21 21 22 22 21 21 21 20 21 22 22 21 22 23 23 23 23 23 23 24 23 21 22 21 20 20 19 20 20 20 20 20 21 22 21 21 22 22 22 21 21 21 21 21 21 21 21 21 21
17 17 17 17 17 17 17 18 18 18 19 20 20 20 20 20 21 21 21 21 21 22 22 21 22 22 21 21 21 21 21 21 22 22 22 22 21 21 21 21 21 21 21 21 21 21 20 21 22 22 21 22 22 22 23 23 22 22 22 22 22 23 23 20 19 19 19 19 20 20 20 22 22 21 22 22 22 22 21 21 21 21 21 21 20 20 20 20
17 17 18 18 17 17 18 18 17 18 19 20 20 20 20 20 21 21 21 20 21 21 21 21 21 21 21 21 21 21 21 21 22 22 21 21 21 20 20 20 20 20 21 21 21 21 20 21 23 23 22 21 21 22 23 23 22 22 21 22 23 23 22 21 20 19 19 19 20 20 20 21 21 21 21 22 22 21 22 22 21 21 21 21 20 20 19 19
16 17 19 18 17 18 18 17 17 19 20 20 19 19 20 20 20 20 20 20 20 21 21 21 20 21 21 21 21 21 21 21 21 21 21 21 20 19 20 20 20 20 20 20 21 21 20 20 22 23 22 21 21 22 22 22 22 22 22 23 23 21 21 21 20 19 20 19 20 20 20 20 20 21 21 21 22 21 21 21 21 21 20 20 19 19 19 18
16 18 19 17 17 18 18 17 18 20 20 19 20 20 20 20 20 20 20 20 21 21 21 21 21 20 21 21 21 21 21 20 21 21 20 21 20 19 19 19 20 20 20 20 21 21 20 20 20 22 22 22 22 22 21 21 22 22 22 23 23 21 21 21 20 20 20 19 20 20 20 20 21 22 23 22 22 22 21 21 21 20 19 19 18 18 18 18
17 19 19 17 17 18 18 18 19 20 19 19 20 20 20 20 20 20 20 20 20 21 21 21 21 20 20 21 21 21 20 20 21 21 20 21 20 19 19 19 19 20 20 20 20 20 20 19 19 21 22 21 21 22 21 21 22 21 21 21 21 21 21 21 21 21 20 19 20 19 19 20 21 22 23 23 22 22 21 21 20 19 19 18 17 17 17 17
17 19 18 17 17 18 17 18 19 19 19 19 19 20 20 19 20 20 19 19 20 20 20 21 21 20 20 20 20 20 20 20 20 21 20 20 20 19 18 17 18 19 20 20 20 20 20 19 19 20 21 21 21 21 21 21 21 21 21 21 21 21 21 20 20 21 21 20 20 19 19 20 20 21 22 23 22 21 21 20 20 19 18 18 17 16 17 17
17 19 18 17 17 18 18 19 19 18 19 19 19 19 19 18 19 20 19 20 20 20 20 20 20 20 20 20 20 20 20 20 20 20 20 20 20 19 17 16 17 18 19 20 20 19 18 19 19 19 20 21 21 20 19 19 20 20 21 21 22 21 21 20 19 20 20 20 20 20 19 20 20 19 21 22 21 21 20 20 20 19 18 17 17 17 16 16
18 18 18 16 17 18 18 19 18 18 19 19 18 18 18 18 19 19 19 20 20 20 20 20 19 20 20 20 20 20 20 20 20 20 20 19 19 18 17 16 16 17 19 19 19 18 17 18 19 19 20 21 21 20 19 19 19 20 20 21 21 21 21 20 20 20 20 19 20 19 19 20 19 19 19 20 20 20 19 20 20 19 18 17 17 17 17 17
17 17 18 17 17 17 18 18 18 19 19 18 18 18 18 18 18 18 19 19 19 19 19 19 19 19 19 19 19 20 19 19 19 19 19 19 18 16 16 17 17 18 19 18 18 18 18 18 18 18 18 19 19 19 19 19 19 20 20 20 19 20 20 19 19 20 19 19 20 19 19 20 19 18 19 19 19 19 19 19 19 18 18 17 17 17 17 17
16 16 17 17 17 17 17 17 17 18 18 17 17 17 17 17 17 17 18 18 18 18 18 18 18 18 19 19 18 19 19 18 18 18 18 18 18 16 16 17 17 18 18 16 17 18 18 18 18 17 17 17 17 18 19 19 19 20 19 19 19 19 19 19 19 19 18 19 20 18 19 20 19 18 19 19 19 19 19 19 19 18 18 17 17 17 17 17
16 16 16 17 17 17 16 15 16 17 17 17 17 16 17 17 17 16 17 17 17 17 17 18 18 18 18 18 18 18 18 18 18 18 18 18 17 16 16 16 17 17 16 15 16 17 17 18 17 17 17 17 18 19 19 18 18 19 19 19 19 18 18 18 18 18 18 19 19 19 19 20 19 19 19 19 19 19 19 18 18 18 17 17 17 17 17 17
15 14 14 14 16 16 16 16 16 16 16 16 16 15 16 17 16 16 17 17 17 17 17 17 17 17 17 17 17 17 17 18 17 17 18 18 18 17 15 16 17 16 15 16 17 17 17 17 17 17 17 18 18 19 18 17 17 18 18 18 18 18 18 17 17 18 19 18 18 19 20 19 19 20 20 19 19 19 19 18 18 18 17 17 17 16 16 17
13 13 12 12 13 15 15 14 15 15 15 15 15 15 15 16 16 16 16 16 16 16 16 16 16 17 17 17 17 16 17 17 16 16 17 17 17 17 16 16 16 16 16 17 17 17 16 16 17 17 16 17 18 18 18 17 17 17 17 17 17 18 17 17 16 17 18 17 17 19 19 18 19 20 20 20 19 19 19 19 19 18 17 17 17 16 17 17
12 13 12 11 12 13 13 12 13 14 15 15 14 14 14 15 15 14 15 15 16 16 16 15 15 16 16 16 17 16 16 15 15 15 16 16 16 16 16 16 16 16 17 17 16 16 16 16 16 17 16 17 17 17 17 17 16 17 17 17 17 17 17 17 17 17 18 17 17 18 18 17 18 20 20 20 20 19 19 19 19 18 17 17 17 17 17 16
10 10 10 12 13 13 12 13 13 14 14 14 14 13 13 14 14 14 14 14 14 15 15 15 15 15 16 16 16 15 14 14 14 14 14 15 15 16 16 16 16 16 16 16 16 15 15 15 15 15 15 15 16 17 17 17 16 16 16 17 17 17 17 17 16 17 17 17 17 17 16 16 18 19 20 19 18 19 19 18 18 17 17 17 16 17 16 16
8 8 8 10 12 12 12 13 13 14 14 13 13 13 13 13 13 13 13 13 13 13 13 14 14 14 15 15 14 13 12 12 13 13 13 14 15 15 15 15 16 16 16 16 15 15 14 15 15 15 14 14 16 16 16 16 16 16 16 16 16 16 16 16 16 16 16 15 15 16 15 16 18 19 19 18 18 18 18 18 17 17 17 17 16 16 16 16
7 7 7 10 12 11 12 13 13 13 13 11 11 12 12 12 13 13 12 12 13 13 13 13 13 14 15 14 12 12 12 12 13 13 13 14 14 15 15 15 15 15 15 15 14 14 14 14 15 14 14 14 15 16 15 15 14 14 15 15 15 15 15 16 16 16 16 16 15 15 16 16 17 18 18 18 18 18 18 18 17 17 16 16 16 16 16 16
Height
803 802 801 800 800 799 798 797 796 795 794 794 793 792 792 791 790 790 789 789 789 788 787 787 786 785 785 784 783 781 780 780 780 779 777 772 771 771 771 771 772 774 775 776 777 777 776 776 776 777 776 774 774 772 773 772 771 773 775 778 775 770 767 763 762 761 761 760 759 757 758 763 762 757 753 753 754 753 755 756 756 756 755 755 756 759 764 771
802 801 800 800 799 798 797 796 796 795 794 793 793 792 791 791 790 789 789 789 788 787 786 786 785 784 783 783 781 780 779 779 778 775 772 770 770 770 770 771 772 773 774 775 775 774 774 774 774 775 774 773 773 772 773 772 772 773 773 776 772 765 762 760 761 762 762 763 761 759 758 760 761 757 754 756 757 755 758 759 758 760 760 758 759 762 767 771
801 801 800 799 798 798 797 796 795 794 793 793 792 791 790 790 789 789 788 788 787 786 786 785 784 783 782 781 780 779 779 778 774 770 768 768 768 769 770 771 772 773 774 774 774 773 773 772 773 773 772 772 772 772 773 772 772 771 772 775 767 760 761 760 762 763 761 762 762 761 759 759 758 756 755 757 757 757 758 758 758 761 762 761 761 763 768 771
801 800 799 798 798 797 796 795 794 793 793 792 791 790 790 789 788 788 787 787 786 785 785 784 783 782 781 780 779 778 779 775 769 766 767 767 767 768 769 770 772 773 774 774 774 774 773 773 773 772 772 772 771 772 772 771 771 770 772 771 761 760 765 762 760 761 760 761 763 762 760 759 757 756 757 756 759 759 754 752 755 757 759 761 762 765 769 772
800 799 799 798 797 796 795 795 793 793 792 791 790 790 789 788 788 787 786 786 785 784 784 783 782 781 780 779 778 778 778 773 767 765 767 766 765 767 768 770 772 773 774 775 774 774 774 772 772 772 772 771 772 772 770 768 769 771 769 765 760 762 766 761 758 760 760 761 762 762 761 759 756 757 757 756 759 757 749 749 752 753 756 759 763 766 769 771
799 798 798 797 796 795 794 794 793 792 791 790 789 789 788 787 787 786 785 785 784 783 783 782 781 780 779 778 777 778 776 771 766 766 766 765 765 766 768 770 772 773 774 774 773 773 772 771 771 772 771 770 771 771 769 768 769 772 766 761 762 762 764 762 759 760 760 762 763 761 759 758 758 757 755 755 755 752 748 749 751 753 755 758 763 767 769 772
798 797 797 796 795 794 793 792 792 791 790 789 789 788 787 787 786 785 785 784 783 782 781 781 780 779 778 777 777 776 771 767 766 766 766 766 766 767 769 771 772 773 773 773 772 771 771 771 770 770 770 770 770 769 770 769 769 771 765 762 763 761 763 761 758 759 759 762 760 758 759 759 760 757 754 754 753 752 751 749 751 754 756 760 764 768 770 773
797 796 795 794 793 793 792 791 791 790 789 788 788 787 786 786 785 784 783 783 782 781 781 780 779 779 778 778 776 770 766 766 767 767 767 767 767 768 770 772 773 773 772 771 771 770 770 770 769 768 769 769 769 769 770 769 769 769 766 762 761 760 760 758 757 758 758 759 757 758 760 758 756 755 755 754 751 752 751 750 752 755 759 762 766 769 772 774
796 795 794 793 792 792 791 790 789 788 788 787 787 786 785 785 784 783 782 781 781 780 780 779 779 778 777 778 774 767 766 768 767 767 767 768 768 769 771 772 773 773 772 771 770 770 769 769 768 768 768 768 769 768 769 770 768 766 764 762 761 760 757 756 757 757 758 757 756 759 759 756 754 755 756 753 751 753 752 752 754 757 761 764 767 771 773 775
794 793 793 792 791 791 790 789 788 787 787 786 786 785 784 784 783 782 781 781 780 779 779 778 778 778 778 778 772 768 769 768 768 768 768 769 770 770 772 772 772 772 771 771 771 770 768 768 768 766 766 768 769 768 768 768 765 763 763 761 760 759 755 757 758 757 757 756 756 758 757 755 754 755 757 754 752 753 753 756 757 759 762 765 768 772 774 777
793 792 792 791 790 790 789 788 787 787 786 785 784 784 783 783 782 781 781 780 779 779 779 778 778 778 779 777 770 767 769 769 769 768 768 770 770 771 772 772 772 771 770 771 771 770 769 768 767 766 767 767 768 768 766 764 763 762 763 762 759 756 756 757 757 757 755 756 756 754 754 754 753 755 756 754 753 753 755 758 758 760 763 765 768 772 775 776
792 791 790 790 789 788 788 787 787 786 785 784 784 783 782 782 781 781 780 780 779 779 778 778 778 778 779 775 768 766 769 769 769 769 769 770 771 772 772 772 772 771 771 770 770 770 770 769 768 768 767 766 766 768 766 762 762 762 762 764 758 753 757 756 755 755 753 755 754 752 757 757 753 755 755 755 754 753 755 757 758 760 763 765 768 771 773 775
791 790 789 789 788 788 787 787 786 785 784 784 783 782 782 781 781 780 780 779 779 779 778 778 778 779 779 771 766 768 769 769 769 769 769 771 772 772 772 772 772 772 772 770 770 771 771 770 769 768 766 766 765 765 764 762 763 762 761 762 758 755 758 755 753 753 752 756 753 754 763 758 752 754 755 755 755 755 757 757 757 759 762 765 768 770 771 772
790 789 789 788 787 787 786 786 785 784 784 783 782 781 781 780 780 780 779 779 779 778 778 779 778 780 777 768 766 768 768 768 769 769 769 770 771 772 772 772 772 773 772 771 771 772 771 771 770 768 766 765 764 763 763 762 761 761 760 760 756 757 759 755 753 752 754 757 750 754 762 754 751 755 755 756 755 756 757 756 757 759 761 764 766 769 769 770
789 788 788 787 787 786 786 785 784 783 783 782 781 781 780 780 779 779 779 779 779 778 778 778 779 779 772 766 767 768 767 768 768 769 769 770 770 770 771 772 772 772 773 773 772 772 772 771 769 767 766 764 764 765 763 761 759 758 763 764 756 755 758 757 754 751 754 756 749 755 759 750 752 756 755 756 755 756 757 756 757 758 761 763 765 767 768 769
788 787 786 786 786 785 785 784 783 783 782 781 781 780 779 779 779 779 778 778 779 778 779 779 778 778 770 765 767 767 767 767 767 768 769 769 769 769 770 772 772 772 773 773 772 772 771 770 769 767 766 764 764 763 760 762 762 758 760 764 760 756 757 758 757 752 753 755 751 755 756 750 754 756 755 756 756 756 756 756 758 759 760 762 763 764 765 768
787 786 785 785 785 784 784 783 783 782 781 781 780 779 779 779 778 778 778 778 779 778 779 778 777 777 770 765 767 766 764 765 766 767 767 769 769 769 770 770 770 771 771 772 772 771 770 770 769 768 765 764 763 761 766 770 767 761 759 762 763 760 757 758 759 755 752 755 755 757 756 753 755 755 755 756 756 757 757 756 758 759 761 761 762 763 764 767
786 785 784 784 784 783 783 783 782 781 781 781 780 779 779 778 778 778 778 778 779 779 779 778 777 776 771 766 765 764 763 765 766 766 767 768 768 769 769 767 768 769 770 771 771 770 770 768 767 767 765 764 763 762 770 771 764 764 763 763 765 763 760 758 759 758 755 755 757 759 758 754 755 754 754 756 756 757 757 756 758 759 760 761 761 761 762 765
785 784 783 783 783 782 782 782 781 781 780 780 779 779 779 779 779 779 779 779 777 774 773 772 771 770 767 763 761 762 763 764 765 766 766 767 768 768 767 767 766 767 769 769 769 769 768 768 769 769 766 764 765 763 766 765 762 764 763 762 762 762 761 757 758 760 759 759 758 759 759 756 756 755 755 756 757 759 758 758 760 760 760 760 760 760 761 764
784 783 783 782 782 782 781 781 781 780 780 779 780 780 778 777 775 774 775 775 770 766 764 764 764 763 762 760 761 762 762 763 764 764 765 766 766 767 766 766 766 767 768 768 769 768 769 772 770 767 765 766 769 769 768 767 767 766 765 763 761 761 759 757 761 761 760 763 758 758 761 758 757 755 755 758 759 760 759 760 761 761 760 760 760 760 760 763
783 782 782 781 781 781 781 780 780 780 779 779 780 778 775 774 774 773 772 768 763 762 763 762 762 762 760 760 761 761 761 762 762 762 765 765 764 766 766 766 768 768 766 767 769 770 772 773 768 765 767 770 771 772 772 771 770 769 767 764 763 762 759 757 763 763 762 765 759 759 762 758 755 755 755 758 760 760 759 759 761 760 760 760 759 760 760 762
782 782 781 781 781 780 780 780 779 779 779 779 779 776 773 775 776 775 773 768 762 761 763 762 763 762 759 760 761 760 761 761 762 762 763 764 764 765 765 765 768 766 766 769 771 773 774 770 766 767 770 772 774 773 773 772 771 770 766 765 765 760 758 761 765 763 763 766 760 759 763 757 753 753 754 756 758 757 756 757 758 758 759 759 759 760 760 762
782 781 781 780 780 780 780 779 779 779 778 779 777 775 774 776 775 775 775 771 764 761 761 761 761 760 758 759 760 760 760 759 761 761 761 763 763 763 763 764 765 765 768 770 769 772 771 765 765 769 771 773 775 775 774 772 770 768 765 766 766 761 763 767 767 766 765 767 763 762 765 758 752 753 753 754 755 755 757 757 756 757 758 758 757 758 759 761
781 780 781 780 780 780 779 779 779 778 778 777 776 775 775 776 775 775 773 769 765 761 758 759 759 758 757 758 758 759 758 757 757 758 759 761 761 762 762 762 765 766 765 765 767 767 766 765 767 770 772 772 774 775 774 771 767 767 767 765 763 763 766 765 765 766 765 768 767 764 768 759 749 753 752 751 755 756 757 757 757 758 757 758 758 757 758 759
781 780 780 779 780 779 779 780 778 777 778 776 776 775 775 775 773 774 773 769 767 761 757 759 758 757 756 757 758 757 756 757 756 756 758 758 759 762 763 762 764 765 763 766 768 764 765 771 771 771 773 770 772 772 769 768 766 766 767 764 762 763 766 765 766 768 769 772 768 767 776 765 748 751 752 750 755 755 755 756 756 757 757 758 759 758 758 758
781 780 780 780 779 779 779 778 776 778 776 774 775 774 774 774 771 773 773 768 766 762 759 759 758 757 756 757 757 755 760 760 756 756 758 758 758 760 763 763 763 764 765 766 766 763 766 773 772 772 772 771 771 768 764 766 766 766 763 759 760 762 766 768 767 770 772 771 768 767 777 772 756 753 752 751 754 753 754 757 756 755 755 756 756 756 756 757
780 780 780 779 779 779 778 776 776 777 774 773 774 773 774 772 771 773 773 773 772 764 759 758 757 758 756 755 754 758 766 762 757 758 758 759 758 758 762 763 762 764 764 766 769 768 767 771 773 772 771 770 768 763 762 763 764 767 762 757 760 762 766 768 767 769 766 765 768 765 768 774 767 756 751 753 755 752 753 757 757 755 755 755 754 754 754 754
780 779 779 779 778 778 777 776 776 774 772 773 773 773 773 771 772 772 775 785 779 761 757 757 756 756 755 755 755 757 761 757 760 762 757 759 760 759 762 760 760 762 763 767 772 770 767 770 772 770 771 768 760 757 760 762 764 768 764 759 759 761 764 765 764 766 764 771 776 764 764 778 771 755 752 754 755 754 753 755 756 756 756 756 755 755 754 754
779 778 778 778 778 777 777 777 776 773 773 773 772 773 771 770 772 769 775 786 773 756 756 757 756 757 755 755 756 756 756 755 760 760 756 759 759 759 762 759 759 762 763 765 767 767 766 767 766 767 769 764 757 759 761 761 764 766 764 761 760 762 763 765 765 762 767 781 780 765 767 779 772 756 754 756 756 755 753 753 754 754 755 755 756 757 756 755
777 776 777 777 777 777 776 775 775 773 773 773 772 771 770 771 772 776 785 783 766 757 757 754 756 758 755 757 758 757 757 756 757 757 757 759 758 759 761 760 760 762 763 764 764 762 763 766 767 766 764 759 759 765 766 764 764 764 763 762 763 764 762 764 763 762 775 784 774 765 767 777 777 761 752 757 758 757 757 756 755 755 755 755 756 756 755 755
775 775 775 776 776 776 774 773 773 773 773 772 771 770 770 770 771 781 787 773 761 760 757 755 758 756 755 757 758 758 758 758 757 758 758 758 759 760 761 762 762 763 765 764 761 759 761 765 765 761 760 760 761 765 767 766 764 764 763 763 769 770 768 770 767 771 787 785 771 766 766 776 782 764 751 757 758 758 761 760 759 759 757 757 757 756 755 755
774 774 774 774 775 774 773 772 771 772 772 771 771 768 769 775 775 777 774 765 766 764 757 759 759 756 757 756 757 759 757 759 759 757 758 758 759 760 763 763 763 769 772 766 764 763 758 756 756 759 760 760 762 764 767 767 765 765 764 767 778 781 781 783 777 776 781 776 768 768 770 778 775 758 754 759 758 759 763 762 762 762 761 760 759 758 756 755
774 773 773 773 773 773 773 772 771 772 770 770 770 765 769 780 780 773 765 764 769 763 757 761 759 758 758 757 761 761 758 761 760 759 760 758 759 763 766 765 763 770 773 769 769 768 761 754 754 760 761 758 759 761 765 766 764 765 764 769 780 783 788 791 781 775 774 771 768 768 775 780 767 755 757 759 760 762 762 762 763 763 763 763 760 757 756 755
773 772 773 772 773 773 772 771 770 770 770 769 767 767 776 783 777 771 767 762 763 760 759 762 759 759 759 759 764 762 760 764 760 758 760 758 761 765 766 768 766 766 768 769 771 770 771 767 759 759 761 760 759 756 757 758 759 760 755 760 771 775 783 788 780 776 773 770 773 776 780 776 766 763 761 759 761 761 761 762 763 764 763 762 760 758 757 756
772 772 772 772 772 772 770 770 769 769 769 767 766 771 779 779 769 767 766 760 759 760 760 761 759 760 762 762 764 762 762 765 760 759 761 760 765 767 766 769 768 766 768 772 773 770 773 769 758 758 760 759 758 754 753 757 760 757 751 759 767 762 766 777 780 780 778 777 777 778 774 762 758 763 759 758 761 760 762 763 762 764 763 762 762 761 760 759
772 771 771 771 771 770 769 769 768 769 768 765 769 773 771 768 763 762 762 760 760 760 760 762 760 761 763 764 765 764 762 763 761 761 764 765 768 769 770 770 770 769 768 770 771 771 774 767 755 758 760 757 759 757 754 759 762 760 760 763 759 751 756 773 783 785 787 788 776 769 768 759 757 763 757 758 762 760 763 763 762 765 764 763 765 763 763 762
771 770 770 770 770 769 769 768 768 769 766 765 771 771 764 762 762 759 760 761 761 760 760 765 764 762 765 765 765 764 763 763 762 763 765 768 771 773 773 772 772 771 768 768 769 769 773 769 755 755 761 760 759 758 755 756 758 761 764 759 752 753 758 767 780 783 785 788 773 764 771 767 763 766 760 758 762 762 762 763 764 765 764 765 767 766 766 764
771 770 769 769 769 768 767 768 768 766 765 766 770 769 763 761 761 760 761 762 761 760 761 764 765 764 765 766 765 764 764 765 764 764 766 768 773 776 774 772 772 771 769 769 770 769 774 774 760 754 761 760 757 760 760 757 755 757 758 753 756 769 769 767 779 783 782 785 775 765 768 765 759 761 761 760 761 762 763 763 764 765 766 768 769 769 769 767
770 768 767 768 768 767 766 768 766 764 766 768 768 766 762 761 761 761 761 762 760 761 761 761 763 764 764 764 764 764 766 767 765 766 768 768 773 777 775 774 773 771 770 769 769 770 773 778 771 756 757 760 757 759 762 759 756 757 757 753 756 765 768 766 772 774 776 782 778 771 768 762 751 746 749 755 756 759 763 763 765 767 769 771 772 772 772 771
769 766 764 767 767 766 766 767 765 764 766 766 763 761 760 760 761 761 762 762 760 760 761 760 762 765 765 764 765 764 767 768 765 767 769 768 773 777 776 777 776 772 771 770 770 771 771 780 779 761 755 762 760 758 759 758 757 759 761 760 760 761 762 764 764 761 768 777 778 779 774 760 749 743 743 747 752 756 761 763 766 769 771 773 775 775 774 774
769 766 764 766 766 766 766 766 765 764 764 763 762 761 762 762 761 761 762 763 761 760 760 760 761 763 764 766 765 764 767 768 766 766 767 767 770 776 778 781 780 775 773 770 770 774 774 778 780 770 763 764 760 758 760 762 762 761 760 758 758 759 764 772 771 760 761 768 769 774 773 759 752 751 745 745 752 757 759 763 767 770 772 775 776 777 777 776
767 765 764 766 765 765 765 764 764 765 763 762 762 762 764 765 763 762 762 761 761 760 760 762 763 763 764 765 764 764 766 767 767 766 767 767 768 774 779 783 782 779 776 773 771 776 779 778 778 777 769 761 758 761 765 766 764 763 762 758 756 758 762 772 775 764 763 765 761 767 771 762 756 756 751 751 756 758 760 763 767 770 774 776 777 778 778 778
766 764 764 766 765 764 765 765 765 766 763 762 763 764 765 766 764 763 763 762 762 761 762 763 764 765 765 765 765 765 766 768 769 768 769 770 772 777 780 782 782 779 776 774 774 779 782 779 778 777 766 756 757 760 763 766 767 766 763 760 761 761 760 765 767 765 768 768 765 772 773 763 759 760 759 760 760 761 764 765 767 772 775 776 777 778 779 779
768 767 765 765 764 762 764 765 763 762 763 764 765 765 766 766 766 765 765 765 764 764 764 765 766 766 767 767 766 765 767 771 772 770 771 772 775 781 781 780 781 777 775 777 777 779 782 779 779 782 777 771 769 767 766 767 766 765 762 763 766 764 763 767 766 766 773 768 764 773 770 759 760 763 761 762 762 763 766 766 768 772 775 776 777 778 779 780
769 768 766 765 764 763 765 766 764 762 765 768 767 768 768 768 770 770 768 768 768 767 768 768 767 767 767 768 770 768 769 773 773 773 774 773 776 781 782 781 780 776 779 783 779 779 781 778 780 786 787 785 781 774 771 768 764 764 765 768 770 768 768 772 769 771 775 767 762 770 766 757 761 765 763 764 765 765 767 769 769 771 774 776 777 778 779 780
769 769 768 765 764 765 768 771 768 766 767 770 770 771 770 769 771 772 770 770 771 770 770 770 769 769 769 770 773 772 770 772 773 773 774 773 776 781 783 782 781 780 783 786 782 780 781 780 780 782 782 779 774 767 767 771 771 770 769 769 769 771 771 772 773 772 770 766 765 764 760 758 762 763 763 765 765 765 767 769 770 771 774 776 777 779 779 779
773 776 777 775 771 768 769 771 770 770 771 772 774 775 774 771 772 772 771 772 773 772 772 772 771 772 773 773 774 775 773 773 774 775 774 774 774 779 784 783 782 784 786 785 782 781 783 783 780 780 779 775 770 767 768 774 776 774 772 771 770 771 772 775 777 771 766 769 769 758 755 762 761 756 759 763 764 764 766 768 769 771 774 776 778 779 780 780
779 783 785 785 781 776 775 777 776 774 773 774 776 778 777 774 774 776 775 774 773 773 774 775 774 773 773 773 775 776 776 776 777 778 777 777 777 779 782 782 782 784 784 782 781 781 785 784 778 778 780 776 772 772 772 775 776 774 773 774 773 772 773 776 777 771 768 773 771 759 759 764 761 754 754 757 760 762 763 764 766 769 773 775 777 779 779 780
785 785 787 788 785 782 783 784 782 778 777 777 779 781 780 778 779 781 779 777 776 776 776 778 778 775 774 775 774 776 779 781 782 781 780 781 782 780 780 781 782 782 781 781 783 784 786 784 779 779 781 777 773 772 772 774 776 775 773 773 772 772 772 772 772 770 768 769 766 763 765 765 762 757 754 754 758 760 761 763 766 770 773 775 776 778 778 780
794 794 793 788 784 785 786 785 782 779 778 780 781 783 783 782 782 783 783 784 783 781 779 780 780 779 778 777 777 780 785 787 786 786 786 785 784 782 781 781 781 781 781 783 785 787 789 787 783 784 784 780 775 771 771 773 773 773 772 770 769 770 770 771 771 770 770 769 766 768 771 769 763 757 755 758 760 761 762 765 768 770 771 774 776 777 778 779
802 803 802 793 787 789 788 785 783 780 779 783 786 786 787 786 786 787 787 789 788 787 786 784 783 782 780 780 783 788 792 793 791 790 790 788 786 784 783 783 783 782 783 784 786 788 789 787 784 787 788 782 774 772 772 772 772 772 771 770 771 772 771 771 770 770 772 773 772 772 772 768 761 755 755 759 761 762 763 764 767 769 771 772 775 776 777 779
805 804 804 797 791 792 790 785 783 782 786 793 794 791 791 790 788 789 791 791 789 789 790 788 786 783 781 784 791 794 795 795 793 791 791 789 787 785 785 785 785 785 785 786 788 788 788 787 785 786 787 782 776 775 777 779 780 777 771 769 771 771 770 768 767 766 767 770 772 771 767 764 761 758 757 758 759 760 760 761 765 769 770 772 773 775 777 779
Wind_Speed
10 9 9 9 8 9 9 9 8 8 8 8 8 8 8 8 7 7 6 7 7 7 7 7 8 8 9 9 10 11 12 11 10 8 11 10 6 7 5 2 9 14 12 10 10 9 9 9 8 8 8 6 5 4 6 4 3 4 5 6 6 5 3 1 3 2 4 3 3 7 7 10 10 2 2 3 9 9 10 8 5 6 4 7 14 21 24 24
10 9 8 8 9 8 8 8 8 8 8 8 8 8 8 8 8 7 6 7 7 7 7 7 8 8 9 9 10 12 12 11 12 11 12 10 8 8 6 5 12 17 13 10 11 10 9 8 8 9 8 5 4 5 6 5 5 6 4 5 6 4 2 2 3 4 5 6 7 8 8 9 9 3 1 5 10 11 11 10 9 9 8 11 17 21 23 23
9 9 8 8 9 8 8 8 8 8 8 8 8 8 8 8 7 7 7 7 7 7 7 8 8 8 8 9 10 11 11 11 9 5 5 4 5 8 8 9 15 17 11 8 8 8 6 6 8 9 7 5 4 5 7 6 5 6 4 6 5 3 3 2 4 5 6 8 10 9 9 9 5 2 2 5 8 12 12 11 12 13 12 14 17 18 21 22
9 9 8 8 8 8 8 8 8 8 8 8 8 8 8 8 7 8 8 7 7 7 7 8 8 8 8 9 10 9 9 9 3 4 0 5 5 8 12 13 16 14 9 7 7 6 4 6 8 8 7 5 5 5 7 6 4 4 5 7 4 2 4 4 4 5 7 8 10 9 9 7 4 2 5 5 7 10 11 9 10 12 15 16 17 17 20 20
9 9 9 9 9 9 9 9 8 9 9 8 8 8 8 8 7 8 8 7 8 7 7 7 7 8 8 9 8 6 6 4 3 4 4 7 5 11 16 16 16 12 8 9 8 6 6 7 8 7 7 5 6 7 6 6 4 3 7 9 6 4 6 5 4 5 6 7 8 8 8 6 4 4 6 7 7 4 5 6 5 9 14 16 17 17 18 18
10 10 10 10 10 9 9 9 9 9 9 8 8 8 8 8 8 8 7 7 7 7 7 7 6 7 8 8 5 4 6 1 4 3 6 4 4 16 20 17 14 11 10 10 7 7 7 7 8 7 6 5 7 6 4 6 5 5 7 7 7 7 7 6 6 5 6 8 9 7 6 6 7 5 4 8 4 4 4 5 5 9 13 15 17 16 16 18
11 10 10 10 10 10 9 9 9 8 8 8 8 8 8 8 8 8 7 7 7 7 7 6 6 6 7 6 3 6 5 4 5 5 4 3 12 19 19 15 13 12 10 9 7 7 6 8 8 5 5 5 6 5 3 5 8 8 7 4 6 7 7 8 7 6 6 9 9 7 6 7 8 3 2 7 2 6 3 6 8 11 12 14 16 14 15 16
11 11 11 11 11 10 9 9 9 8 8 7 7 7 7 7 7 7 7 7 7 6 6 5 5 5 6 5 5 6 1 6 6 5 1 10 16 19 17 12 11 11 10 8 6 6 6 7 5 4 6 3 4 5 4 6 9 10 8 5 6 6 7 8 7 7 8 8 7 7 8 7 5 2 2 5 4 5 3 7 11 13 13 14 14 15 15 15
11 11 11 11 11 10 9 9 8 8 8 8 7 7 7 7 7 7 7 6 6 5 5 5 4 5 5 4 7 3 4 6 5 2 7 14 17 19 14 10 11 10 9 6 4 6 6 5 3 3 3 3 4 5 5 7 6 6 8 6 6 7 7 6 6 7 6 5 4 5 6 2 2 3 3 3 5 6 5 8 12 14 15 14 14 14 14 15
12 11 11 10 9 9 8 8 8 8 8 8 7 7 7 7 7 6 6 6 5 4 4 5 2 3 4 5 8 1 5 4 2 5 10 16 18 17 11 9 11 9 8 5 5 5 3 2 2 1 2 3 4 3 5 6 1 1 7 7 8 9 6 6 6 6 5 4 3 5 3 2 3 5 3 5 5 6 7 9 11 13 14 14 14 14 13 14
12 11 10 8 8 8 7 7 8 8 8 8 8 7 7 7 7 5 5 5 4 4 4 4 2 2 4 8 6 2 5 2 2 6 10 16 16 13 8 7 9 8 7 6 5 4 1 2 1 2 2 3 4 4 4 3 3 3 7 8 9 8 4 4 4 4 5 3 4 6 3 3 5 3 3 6 6 7 8 10 11 12 13 14 15 15 13 13
11 10 9 7 7 8 7 6 7 8 8 8 8 8 7 7 6 5 5 5 4 5 4 4 3 4 5 7 2 4 4 1 3 7 10 13 12 8 6 6 6 6 5 5 6 4 1 0 3 4 0 1 5 5 3 1 4 5 6 7 7 6 4 2 2 3 4 3 2 6 5 7 7 3 6 5 5 7 8 10 11 12 12 13 14 13 12 13
11 10 8 7 7 7 6 6 7 8 8 8 8 8 8 7 6 5 5 4 4 4 4 3 3 3 6 3 4 3 2 2 4 8 10 10 8 6 6 4 4 4 3 3 3 3 4 2 5 4 2 3 2 1 1 2 6 6 5 6 5 6 5 4 3 5 4 2 1 6 6 7 7 6 6 5 5 7 8 9 10 11 11 12 13 12 12 13
11 10 8 7 6 6 6 5 7 8 7 8 8 9 8 7 6 5 5 4 4 3 3 2 2 3 5 2 5 2 2 3 5 8 9 10 8 7 6 4 4 3 2 0 2 1 4 4 6 4 2 4 1 1 4 5 5 4 4 4 4 5 6 8 3 5 6 3 2 7 6 5 7 6 5 4 5 7 7 8 9 10 10 11 11 11 11 12
10 9 8 7 6 6 5 6 7 8 8 7 8 8 7 7 5 4 4 3 3 2 1 3 2 4 4 4 4 2 1 3 6 7 9 10 8 7 7 6 5 3 2 1 1 1 2 5 6 4 2 2 4 5 5 5 5 4 4 4 4 4 6 10 5 2 4 5 2 7 7 4 7 5 4 3 4 6 6 7 9 9 10 10 10 10 11 11
9 9 8 7 6 6 5 6 6 7 8 7 7 7 5 5 4 4 4 2 3 1 0 3 3 5 4 4 4 2 3 4 4 5 8 9 6 6 8 8 5 4 3 1 1 2 2 4 4 3 2 3 5 5 4 4 5 5 5 2 3 4 4 8 7 5 4 4 4 5 7 2 6 5 4 3 4 5 6 6 8 9 10 10 9 10 10 11
9 8 7 7 7 6 6 6 6 7 7 6 6 5 3 3 3 3 2 2 2 1 2 4 3 5 2 4 4 4 4 2 3 4 8 8 5 7 9 8 6 6 5 3 4 4 3 4 2 1 3 3 3 4 4 5 4 5 4 1 2 3 2 5 8 6 2 3 3 3 7 3 4 3 3 3 5 5 6 6 7 7 8 8 8 9 10 11
9 8 7 7 7 6 6 5 5 7 6 4 4 2 1 1 1 1 1 2 1 2 4 4 4 4 3 5 3 3 3 1 3 4 7 8 7 7 6 4 5 7 8 6 5 5 4 3 3 3 4 3 3 5 5 2 1 3 4 2 3 3 3 2 5 5 3 3 3 3 7 3 2 2 3 4 5 6 6 5 5 6 7 8 9 10 11 11
9 7 6 7 6 6 6 5 5 5 5 3 2 0 1 1 1 2 4 4 3 3 1 2 4 3 2 5 2 3 1 2 4 5 8 9 8 7 4 3 5 7 7 5 6 5 3 3 4 4 4 3 1 3 4 4 3 2 2 3 3 4 4 2 5 6 5 3 4 3 4 2 0 2 4 5 5 6 7 5 4 5 6 8 8 9 11 11
8 7 6 6 6 5 5 5 4 4 4 2 1 2 2 1 1 3 5 6 6 4 4 1 3 5 1 3 2 1 2 5 5 6 9 10 9 8 6 5 6 6 6 3 4 3 2 5 5 3 0 2 2 2 4 4 3 3 3 5 5 4 4 4 5 4 4 5 3 1 4 4 2 0 4 5 5 7 8 8 7 6 7 7 9 10 11 10
7 6 6 5 5 5 4 4 3 3 2 1 4 4 1 4 3 2 2 4 5 3 6 3 4 6 4 2 2 2 2 5 6 7 9 9 9 9 7 6 7 6 4 1 2 2 3 6 2 1 3 3 1 1 1 1 2 4 6 6 5 6 3 5 4 3 3 5 3 2 6 6 3 0 4 6 6 8 9 9 9 8 8 7 8 10 10 9
7 6 5 4 4 3 3 3 2 1 0 3 5 3 3 5 4 3 4 4 3 2 4 3 4 6 5 5 4 3 4 6 8 9 8 8 10 7 5 6 8 4 5 4 3 4 6 5 3 5 2 3 2 3 4 3 3 5 5 5 5 4 3 5 5 3 1 4 3 0 6 7 3 2 4 6 7 7 7 8 8 8 9 8 8 9 9 10
7 5 4 4 3 2 2 2 1 2 3 4 4 1 3 3 4 3 5 5 2 3 3 4 4 4 4 4 4 5 6 5 7 10 10 9 8 5 4 6 5 3 6 7 6 4 4 3 7 5 3 4 4 4 5 4 4 5 5 6 4 2 3 3 6 5 1 2 4 3 6 7 6 5 5 6 6 4 4 6 7 7 8 8 8 8 9 11
6 4 4 3 2 2 2 1 1 3 5 5 3 1 2 4 4 4 5 5 2 2 1 1 2 3 2 1 5 8 4 1 3 7 11 10 5 3 4 3 3 4 5 6 6 6 0 7 6 3 3 5 4 6 7 6 5 5 5 7 4 2 4 4 2 3 2 3 3 5 7 7 7 8 7 7 6 6 6 6 6 6 7 7 8 9 9 10
5 3 3 3 2 1 1 2 2 3 5 6 4 0 3 6 5 5 5 4 2 3 3 3 2 2 2 2 5 5 2 2 1 4 9 9 4 3 3 1 3 4 4 4 5 6 2 6 2 3 4 5 5 6 7 6 5 5 7 9 6 3 4 4 1 3 5 5 2 4 7 4 4 7 6 6 7 8 7 6 7 6 6 7 8 9 9 10
5 4 3 3 2 2 2 2 2 3 5 5 2 2 6 8 4 5 5 3 3 3 3 4 3 3 4 4 5 3 4 4 2 3 6 5 2 2 2 3 3 1 3 3 4 2 3 4 2 3 4 5 6 6 6 6 7 4 6 8 8 6 5 5 4 4 6 3 2 2 7 4 3 5 5 5 7 8 8 6 5 5 6 7 8 8 9 9
5 4 4 4 3 4 2 1 1 3 5 2 1 4 8 8 2 6 4 3 4 2 2 3 1 2 2 2 4 4 2 5 5 4 4 3 2 3 3 4 3 2 2 3 3 1 4 5 4 4 5 6 7 5 5 8 8 1 3 6 9 7 6 6 6 5 5 3 2 5 6 6 5 4 5 6 7 8 9 7 5 4 5 5 6 6 7 8
7 4 5 5 5 6 4 3 2 4 2 3 3 7 9 5 5 6 5 2 4 0 2 3 2 1 1 2 4 4 1 2 3 4 4 3 4 4 5 4 2 3 4 4 2 4 4 4 5 5 6 7 5 1 3 9 7 1 2 3 6 5 5 5 6 6 3 3 5 6 5 6 7 3 5 6 8 9 9 6 5 4 4 4 4 5 6 7
8 5 6 6 6 6 6 5 5 4 1 3 6 9 8 3 6 4 4 1 2 1 1 2 3 3 2 3 5 4 2 2 1 4 6 5 4 3 3 2 2 2 4 6 4 2 2 1 1 5 6 5 1 5 1 7 4 2 3 4 4 4 4 5 6 6 3 5 8 5 4 5 6 4 5 6 6 6 5 4 3 3 2 1 1 3 5 6
10 6 7 7 6 5 6 6 6 4 1 3 7 8 4 5 4 4 4 1 0 3 2 1 2 1 3 6 5 3 4 2 3 4 6 5 5 4 1 1 3 3 4 6 6 1 3 2 0 5 6 3 3 4 2 2 1 4 6 6 6 6 5 5 5 4 4 7 6 3 4 5 6 5 4 2 1 1 1 1 1 2 2 3 3 4 5 5
12 5 7 8 6 5 5 3 3 3 3 5 7 5 5 5 4 5 3 1 0 3 3 3 2 1 4 5 4 5 5 4 4 5 5 4 6 6 3 3 3 4 5 6 5 3 5 6 4 4 4 2 2 3 2 1 3 5 6 6 6 5 4 5 5 4 6 7 1 4 4 5 7 4 2 3 4 3 2 1 2 4 5 6 6 7 7 7
12 4 6 7 7 6 5 1 1 4 5 6 6 4 5 4 5 4 2 2 2 2 2 2 2 1 4 3 4 4 4 4 3 2 2 3 4 3 2 2 1 4 5 3 2 2 5 5 4 4 5 5 7 5 4 4 6 6 7 6 6 6 5 6 6 5 6 4 3 5 3 5 7 3 4 5 4 3 1 2 3 5 6 7 7 7 6 6
11 2 5 6 6 7 6 5 5 6 5 5 5 5 4 5 5 1 2 3 1 2 2 1 2 2 4 4 5 3 2 3 2 2 1 2 3 2 2 2 2 4 4 2 2 4 4 4 6 5 5 5 8 7 4 5 6 8 7 6 7 6 6 7 7 6 7 2 5 4 2 5 7 1 5 4 3 3 2 1 2 4 5 6 6 7 6 6
10 1 4 5 5 5 5 6 5 4 3 5 5 5 4 5 2 1 2 2 3 2 2 1 2 3 2 2 4 2 1 3 2 2 3 3 3 3 3 3 0 4 4 3 3 4 5 3 4 3 3 4 8 7 5 3 5 7 6 6 7 6 6 7 6 6 7 2 4 5 3 5 5 2 5 4 4 3 2 2 2 2 3 4 5 6 6 6
9 1 2 2 2 3 5 6 3 2 3 5 5 5 5 4 2 3 3 2 2 3 3 1 4 4 4 4 4 2 2 2 3 1 1 1 1 1 2 3 2 2 3 4 1 1 7 4 4 4 2 2 5 4 4 6 5 5 4 7 7 5 6 5 2 3 5 4 2 4 4 4 1 4 5 5 5 5 4 3 3 3 4 4 4 5 6 7
6 1 1 3 1 4 5 3 2 3 4 5 5 5 4 2 1 2 1 1 1 2 3 5 5 5 4 4 3 3 1 1 1 2 1 2 1 2 2 3 3 2 3 3 1 2 6 3 6 5 3 2 2 2 3 6 5 2 5 7 3 2 6 6 2 2 1 7 6 5 6 5 3 4 6 8 7 7 6 5 4 4 5 5 5 6 7 7
5 2 2 3 3 6 3 1 3 4 5 5 5 4 1 0 1 0 1 1 1 1 4 6 3 3 4 4 4 5 2 1 1 2 2 3 2 2 3 2 3 3 4 3 3 1 4 5 3 3 2 4 1 3 4 4 5 4 5 3 1 1 5 6 5 3 4 8 7 6 8 8 6 4 7 10 9 9 7 6 6 5 5 6 7 7 7 8
5 3 3 3 9 7 1 2 3 5 4 4 5 3 2 2 1 1 1 1 2 3 6 6 2 2 3 4 4 4 1 2 2 2 3 3 2 1 1 2 3 3 4 3 3 1 3 7 3 3 1 3 4 4 5 5 5 6 4 1 2 5 6 5 6 7 7 8 7 8 10 9 8 5 7 11 11 10 9 8 7 6 6 6 6 7 8 8
4 4 4 4 13 7 2 2 3 5 4 6 6 3 3 3 4 2 0 1 3 4 5 4 2 2 3 3 2 3 1 3 1 1 3 2 1 1 0 0 2 3 3 3 3 1 1 5 2 4 3 1 4 6 7 5 6 5 4 4 4 5 6 6 6 6 8 8 8 9 9 7 7 5 7 11 12 11 10 9 7 6 6 5 5 6 7 8
3 4 3 6 13 6 3 3 4 5 4 5 4 2 3 4 5 3 0 2 3 3 3 3 3 4 4 3 2 2 2 3 3 3 2 2 2 2 2 1 1 2 2 2 2 0 2 3 4 3 4 3 5 4 4 4 2 4 6 7 6 4 4 5 7 7 7 8 8 8 10 7 2 2 4 9 11 11 10 9 7 6 6 6 6 6 6 7
2 3 2 6 13 5 3 4 4 4 4 3 2 2 3 1 3 4 2 2 2 1 2 3 3 3 3 3 3 3 3 4 4 4 3 3 3 2 2 2 3 2 1 4 2 1 2 3 5 5 3 6 2 4 4 6 5 5 5 7 7 7 6 7 9 8 7 8 8 8 10 6 2 3 1 6 10 10 9 9 8 7 7 7 6 6 7 7
4 3 2 8 12 1 5 5 3 1 4 2 1 2 2 1 2 3 3 3 3 1 1 3 3 3 4 4 3 3 4 4 4 4 3 3 2 1 3 2 3 3 3 4 0 2 2 3 6 7 7 8 2 6 2 3 4 6 6 6 7 6 7 9 9 8 6 8 7 8 10 4 4 3 2 6 8 8 8 8 8 8 7 7 7 7 7 7
2 2 3 8 11 2 6 5 3 3 3 1 1 1 1 1 3 3 3 3 2 2 3 3 3 3 3 3 4 5 5 4 4 3 2 2 3 4 4 2 2 4 4 3 1 3 0 3 6 7 7 8 3 3 3 2 3 7 6 5 5 6 7 8 8 7 7 8 7 7 10 4 4 4 3 5 6 7 7 7 9 8 7 7 7 7 7 7
2 2 1 7 9 2 7 5 4 5 3 3 3 3 3 1 0 1 2 1 1 1 3 2 2 1 1 2 4 5 4 4 5 3 2 3 3 4 3 2 1 3 1 2 1 1 2 4 4 6 6 6 6 5 5 6 6 6 6 3 3 6 7 6 7 7 7 11 12 10 10 5 4 4 4 5 6 6 7 6 7 8 7 7 7 6 6 6
2 2 1 5 8 1 3 2 3 3 2 4 4 4 3 2 3 3 1 2 3 2 2 0 1 1 1 3 3 4 4 4 4 2 2 3 4 4 2 2 1 0 4 5 3 2 4 5 4 5 7 6 7 6 3 2 4 4 4 3 3 6 7 5 7 8 8 11 12 10 10 5 5 7 6 6 6 7 8 7 7 7 7 7 6 5 5 5
2 0 0 2 5 4 2 3 2 2 1 3 3 2 3 3 4 3 2 1 3 2 1 1 1 2 3 4 5 6 5 5 4 3 4 5 5 4 2 1 2 3 4 4 3 2 4 5 6 9 9 8 9 8 4 6 7 7 6 6 5 4 6 6 7 8 9 10 10 10 12 9 5 8 9 8 8 8 8 9 9 8 8 7 6 5 5 5
1 2 3 1 2 3 3 3 3 2 1 1 1 1 1 2 3 2 1 2 2 1 0 0 1 3 4 5 6 5 5 5 5 5 4 4 4 5 3 2 2 3 2 1 0 2 5 5 8 11 12 11 13 12 8 7 10 12 11 11 10 7 8 9 9 10 10 9 10 10 11 12 10 8 9 9 8 8 9 10 10 9 9 8 6 6 5 5
2 1 3 2 2 2 2 4 5 3 2 1 1 1 0 1 1 2 2 2 1 1 1 1 2 2 2 3 4 5 5 6 6 5 4 3 4 5 5 5 4 1 2 2 1 2 5 6 8 10 12 13 13 12 11 9 11 13 13 13 13 12 11 11 12 13 12 10 11 11 12 12 10 8 9 8 9 9 10 10 10 9 9 9 8 8 7 6
3 2 2 2 2 3 4 4 3 2 2 2 1 1 1 0 2 3 3 1 1 1 2 2 3 1 1 2 5 5 4 3 4 4 3 3 3 4 4 4 5 4 4 2 1 1 4 5 6 9 13 13 13 13 13 12 13 14 15 15 15 15 15 14 14 15 15 15 15 14 15 12 9 9 10 6 6 8 7 8 9 10 10 10 9 9 8 6
3 3 3 2 1 4 4 3 2 1 1 2 1 2 2 2 3 4 4 4 1 2 3 1 2 3 2 1 1 1 3 3 1 2 1 2 2 3 4 2 2 4 4 2 0 1 2 3 2 6 11 12 13 14 14 14 15 15 16 16 16 15 15 15 14 13 14 15 15 14 14 11 8 11 10 2 2 5 7 8 10 10 10 10 10 9 7 7
4 2 4 3 1 3 3 3 2 2 1 3 2 3 3 3 4 4 5 6 5 4 5 4 2 1 1 3 5 5 6 5 4 4 3 3 1 1 2 1 2 3 3 2 1 2 3 5 3 6 9 10 11 13 13 13 15 17 17 16 16 16 14 13 12 11 11 12 13 14 13 9 7 11 11 6 4 7 9 10 10 9 9 10 10 9 8 7
6 1 3 4 1 3 3 2 2 1 1 4 4 3 4 4 4 1 1 4 5 6 6 6 4 2 2 3 6 7 6 5 5 5 4 3 3 3 3 2 3 5 4 3 2 2 4 6 5 7 9 8 8 8 8 9 11 12 10 10 13 15 16 15 14 13 13 12 11 11 10 6 4 5 9 10 10 11 11 9 8 8 9 10 9 8 8 7
Wind_Direction
325 322 319 318 312 306 305 304 304 305 304 304 303 302 301 303 303 306 309 308 308 300 301 307 306 308 305 306 307 306 314 311 290 254 237 248 256 233 238 218 181 167 153 157 171 179 179 194 186 185 200 187 207 187 168 196 200 216 226 234 240 231 229 242 240 278 329 328 345 343 354 339 338 318 233 212 213 201 172 171 140 129 96 97 123 130 139 146
325 322 318 315 313 310 312 311 307 305 305 304 300 302 302 302 303 301 302 303 302 298 299 302 306 310 306 310 311 311 320 301 272 254 242 250 258 235 209 167 167 159 157 172 182 188 193 192 178 188 203 189 183 173 174 180 202 229 237 235 242 241 242 1 304 310 304 302 320 327 339 336 331 325 224 220 198 182 177 171 165 151 126 126 132 135 143 148
323 321 318 315 316 313 312 309 305 305 305 303 300 300 299 298 299 294 294 295 296 297 297 302 307 306 308 314 310 317 319 289 262 234 222 253 256 220 182 164 164 159 166 182 182 190 199 182 178 193 205 202 186 184 191 176 194 226 239 240 240 254 275 291 274 280 289 304 309 314 326 327 338 347 261 238 198 187 190 175 175 169 148 144 140 141 148 153
323 320 318 313 311 311 310 308 307 308 306 304 301 300 299 298 297 293 291 289 291 295 295 300 302 306 313 312 311 320 305 271 229 100 128 302 281 198 167 158 161 162 171 174 166 174 177 169 182 201 212 203 179 198 201 176 192 205 220 249 262 300 275 265 255 271 289 302 303 308 312 321 7 313 266 247 203 199 202 179 180 174 153 149 146 148 154 156
318 316 314 310 309 308 307 307 308 307 304 301 298 298 297 296 295 291 289 288 290 292 293 294 299 310 312 312 320 311 278 259 107 67 340 311 269 174 157 153 158 159 165 166 157 164 175 176 183 197 214 202 175 200 198 174 210 227 224 253 281 282 269 272 280 287 297 296 290 294 303 328 339 264 251 242 220 205 190 159 164 170 154 150 150 153 158 159
315 314 312 311 308 306 307 308 308 306 306 303 300 299 294 291 290 287 289 289 288 289 292 295 301 309 313 325 339 266 260 359 67 350 343 341 167 157 154 151 154 156 163 166 161 178 181 183 192 193 207 206 191 199 177 169 211 244 229 240 261 266 272 281 286 285 289 285 281 295 313 323 297 264 235 237 233 44 70 128 132 152 150 148 151 157 161 162
315 312 309 309 306 306 308 307 307 308 310 307 304 301 296 292 287 286 287 285 287 290 289 293 300 308 325 339 318 240 249 45 43 341 345 114 140 147 151 148 153 160 169 173 174 189 183 192 203 194 202 201 199 196 160 182 210 243 248 239 256 265 271 272 278 279 276 277 281 295 298 286 280 282 216 225 184 59 83 138 130 136 143 147 153 162 161 162
312 308 306 305 305 306 306 307 306 307 309 308 306 304 302 295 288 285 282 281 284 287 283 286 298 320 340 333 272 231 174 39 17 340 127 143 141 145 148 147 160 171 182 186 184 194 188 196 190 192 213 173 180 190 176 208 212 232 255 260 260 263 261 265 274 276 272 273 277 275 271 270 278 296 224 215 143 93 112 141 138 137 146 152 157 164 161 163
310 309 307 305 306 305 305 307 307 307 306 306 305 307 306 299 291 284 279 279 281 282 280 282 294 334 345 299 269 236 73 20 359 39 147 151 147 148 149 155 171 180 188 187 194 205 197 193 161 213 239 118 170 191 183 225 212 212 249 261 261 262 264 276 282 276 267 262 266 257 251 238 226 222 200 171 127 118 121 135 143 145 152 156 159 164 164 165
312 310 306 305 306 306 309 313 315 312 305 304 302 300 302 299 293 286 283 280 279 277 271 280 303 346 321 267 265 224 73 18 38 107 152 159 151 154 162 166 173 184 185 182 199 206 201 164 117 243 262 130 184 194 190 237 291 199 256 269 269 269 274 285 281 266 249 238 237 238 233 132 180 217 174 122 133 146 140 138 147 153 155 158 160 164 167 168
313 309 304 304 305 309 315 318 316 310 307 307 302 298 298 298 294 286 286 278 270 269 268 282 307 353 295 265 277 86 91 32 96 115 152 164 161 164 173 170 182 195 183 183 194 191 177 92 93 245 213 150 183 188 198 252 321 271 272 275 260 254 254 259 252 236 229 206 204 224 205 147 189 212 80 108 150 166 155 149 156 160 156 159 161 164 170 172
312 306 304 306 308 311 314 314 308 306 310 308 304 302 297 294 293 286 288 282 266 263 268 289 318 355 292 258 311 75 110 85 135 127 143 167 175 180 181 180 200 210 194 195 185 183 219 66 280 266 113 173 195 182 179 257 280 265 271 274 252 223 194 190 184 185 206 159 174 227 201 178 180 108 77 112 160 175 171 163 162 163 158 160 163 167 176 177
312 305 305 306 307 308 308 306 302 306 309 306 306 302 296 291 287 282 281 276 267 268 276 306 339 319 275 247 77 94 143 137 150 139 144 165 178 185 192 194 201 209 216 202 148 182 230 249 288 302 353 252 204 111 234 238 258 254 244 261 256 208 165 111 138 165 160 104 217 238 217 178 148 93 89 128 167 180 180 172 168 165 161 163 166 173 179 177
308 303 304 304 301 299 299 299 301 305 306 307 306 302 301 292 284 281 272 267 264 267 272 305 351 272 262 97 98 164 158 136 164 161 162 167 163 161 176 184 179 186 210 112 72 296 239 242 273 273 260 263 308 326 245 216 226 235 223 233 241 214 131 96 114 169 149 108 226 237 238 174 125 96 100 131 176 190 187 177 172 167 164 167 168 177 179 175
306 302 303 299 294 290 291 295 297 302 305 308 306 306 303 286 281 269 257 260 258 264 301 287 299 267 244 119 120 195 149 163 176 179 180 177 169 157 165 177 175 180 192 206 27 3 216 224 252 253 196 230 256 247 222 195 199 219 224 199 208 219 118 102 82 69 120 114 188 237 245 176 117 93 101 138 190 201 199 179 176 174 169 171 171 179 179 173
304 299 297 291 286 284 284 289 295 301 303 308 310 309 300 279 271 251 237 219 232 189 59 262 239 258 265 112 129 173 173 174 159 173 184 188 191 150 149 162 166 182 191 201 209 179 197 224 253 296 259 207 227 239 216 197 186 203 238 195 186 219 151 128 104 68 85 126 174 234 258 211 110 96 103 153 203 205 208 184 179 182 175 179 181 181 180 172
303 296 291 283 279 278 279 285 292 297 300 312 315 313 308 275 243 222 211 194 228 197 236 273 259 260 281 111 154 163 144 135 108 146 174 186 187 145 147 158 157 168 171 158 181 190 199 223 228 242 240 225 236 247 230 216 184 185 227 194 171 239 218 148 128 96 71 205 172 204 260 269 100 118 134 169 208 214 214 192 182 187 182 187 190 187 184 178
305 295 284 275 274 273 276 282 287 293 303 314 307 305 358 299 163 168 181 157 188 213 229 260 259 248 159 146 174 117 110 139 130 143 161 168 172 167 170 168 150 156 165 158 170 193 196 208 234 229 211 209 221 236 237 238 197 188 206 204 177 201 240 184 121 76 27 235 185 191 239 244 106 191 184 175 203 219 217 202 194 195 193 195 197 197 194 186
306 294 280 272 268 268 272 279 285 294 308 311 294 251 139 133 137 208 206 193 215 241 226 181 220 275 119 142 118 52 79 164 157 159 160 163 171 184 193 186 173 176 189 185 169 188 215 208 225 235 213 190 203 283 312 359 353 293 243 255 222 192 213 152 80 49 16 269 217 208 248 258 216 189 179 180 199 220 218 205 208 207 204 204 203 205 201 194
311 297 281 269 261 265 269 275 290 303 304 294 200 217 227 253 222 195 203 217 232 290 319 255 245 281 290 116 79 24 149 166 175 166 163 168 172 178 184 193 197 204 222 214 153 160 259 238 225 243 20 57 44 339 336 352 331 284 248 243 241 233 211 127 88 59 13 293 221 162 280 262 273 136 161 182 199 217 218 210 214 215 215 215 212 211 205 198
318 298 279 265 260 265 265 274 293 303 301 172 203 234 338 359 342 359 330 247 213 265 287 286 291 277 280 316 313 321 176 172 165 153 159 171 183 185 175 190 213 209 196 174 129 139 242 246 218 55 36 53 102 178 232 283 261 243 238 232 225 232 209 107 91 82 32 294 215 145 268 247 234 233 152 172 204 218 219 215 215 216 221 226 223 220 212 202
323 301 279 265 266 264 263 275 280 276 136 149 217 249 43 26 347 326 306 281 210 223 265 252 264 267 264 263 258 267 239 178 153 153 160 176 197 201 166 191 227 202 143 173 199 184 223 236 121 95 78 108 144 184 201 219 229 227 230 234 228 220 193 118 123 131 65 287 255 184 274 257 236 238 177 181 206 214 219 223 222 220 223 228 229 227 220 209
326 303 279 269 269 267 264 259 245 211 171 180 234 294 53 11 325 262 250 281 266 169 214 220 236 240 216 212 189 206 222 182 160 161 166 187 200 212 198 197 223 189 169 202 223 233 230 149 108 109 147 169 166 179 199 209 215 222 224 231 225 175 225 196 143 146 135 292 294 302 278 266 240 225 207 191 197 193 206 228 234 235 234 236 239 236 227 217
329 301 279 280 262 263 254 184 206 217 187 208 248 30 15 321 308 251 237 278 273 145 178 205 253 241 189 110 170 200 215 175 192 152 162 196 188 174 222 209 209 205 192 201 232 259 271 89 102 143 185 207 193 176 202 224 211 207 226 244 243 165 243 270 117 154 195 190 268 281 263 255 230 221 212 180 183 198 200 214 224 232 239 243 249 245 238 232
328 293 279 280 263 253 208 181 215 214 197 210 226 262 324 324 305 240 242 265 179 134 159 170 214 210 129 114 168 208 238 171 218 121 161 206 204 164 193 192 236 216 157 175 230 250 94 87 133 198 199 220 214 196 207 235 237 202 209 233 251 237 229 258 251 237 240 202 179 287 270 251 196 216 213 169 182 199 195 205 213 213 220 229 238 240 240 239
325 287 268 265 258 163 162 190 160 192 223 212 195 324 323 326 297 211 242 256 147 123 167 176 186 155 145 164 162 205 236 170 81 92 169 209 236 241 209 167 227 265 118 188 244 266 95 114 189 219 220 215 224 228 196 217 252 225 186 206 225 235 221 228 232 236 258 246 128 270 275 270 194 202 183 169 196 193 177 184 201 206 211 220 229 232 235 236
325 279 254 248 221 180 185 337 132 219 245 187 53 325 327 325 235 182 237 226 131 97 187 155 115 124 130 153 175 218 220 124 113 135 178 207 191 240 238 181 188 143 139 228 236 146 126 150 179 216 234 224 231 233 178 210 247 261 124 189 205 212 210 217 231 238 269 304 199 218 256 275 254 213 153 171 210 198 177 166 168 191 208 220 233 236 239 242
325 274 249 241 222 219 246 294 269 257 283 37 352 320 328 312 188 190 253 200 104 350 200 112 87 126 127 155 206 244 2 102 165 130 132 193 195 232 237 219 231 142 159 250 250 125 155 190 198 221 241 238 241 36 152 216 237 46 78 194 200 205 209 218 242 251 262 290 254 217 216 257 256 215 159 185 217 213 191 168 156 168 185 209 238 256 265 265
327 275 248 237 232 237 242 252 267 275 327 352 325 323 319 239 192 228 258 195 102 190 151 100 142 161 174 181 196 225 242 254 303 98 136 178 198 253 263 241 272 165 171 251 287 96 156 219 247 246 252 251 282 47 49 231 226 93 140 174 174 190 209 226 251 262 234 252 267 231 189 258 266 223 191 194 217 219 188 164 151 139 148 178 266 289 286 280
333 277 243 230 231 242 237 231 245 259 297 315 323 325 285 204 211 243 215 199 131 145 129 172 175 183 207 195 176 176 199 170 83 133 158 164 178 199 330 25 245 233 199 235 265 255 140 132 143 248 257 295 56 66 29 282 160 145 178 188 188 194 207 225 245 270 257 249 257 194 177 256 272 239 211 181 59 17 72 166 105 55 14 360 355 330 319 311
339 275 231 224 221 224 227 205 202 236 290 320 328 301 232 206 244 241 188 171 190 148 159 162 137 206 209 196 158 147 165 131 123 185 176 156 178 183 188 199 212 231 225 221 228 206 186 193 181 202 232 246 189 163 118 139 184 191 209 219 219 211 214 235 228 221 251 255 201 119 166 233 254 245 167 102 71 48 355 310 349 344 337 348 345 336 336 329
343 267 219 223 223 222 240 293 276 261 293 320 313 255 227 227 235 230 154 176 202 153 151 118 77 139 175 150 109 128 153 121 123 210 194 184 191 165 207 249 255 236 237 222 200 227 227 202 146 149 187 212 226 208 159 174 202 215 228 230 236 236 227 242 241 229 247 248 115 117 171 225 250 249 114 112 96 76 33 338 338 331 334 339 337 338 339 335
347 265 208 221 228 231 255 284 274 269 297 308 276 236 240 246 231 212 152 183 136 59 85 56 58 129 187 167 112 109 148 103 109 181 164 234 208 122 83 8 319 264 264 287 267 266 241 157 145 173 168 193 228 224 196 193 199 215 230 232 240 248 243 245 246 248 253 221 113 127 188 237 247 208 92 100 90 81 86 31 355 341 340 338 339 346 350 355
350 262 217 229 233 240 270 287 276 267 285 276 247 218 231 241 220 119 197 162 78 82 102 62 138 138 155 137 90 56 173 99 78 188 179 210 209 151 123 101 76 260 260 264 267 280 265 195 157 178 125 168 222 244 283 289 218 222 242 247 249 254 256 260 259 259 262 229 124 140 188 247 245 120 86 97 108 109 114 93 64 16 357 353 354 1 5 14
349 302 218 206 217 288 302 295 268 215 248 255 236 218 227 232 192 192 200 118 111 160 138 155 209 180 136 111 85 29 340 79 93 199 204 211 212 141 116 91 67 279 257 250 226 256 265 254 101 81 76 175 225 255 292 282 245 220 237 247 254 261 257 265 288 309 304 288 212 184 220 256 205 120 119 133 137 133 127 116 107 74 50 34 24 22 20 24
349 264 166 143 96 329 316 290 185 192 246 249 231 227 230 259 248 195 161 76 195 185 168 183 213 215 176 151 139 117 33 9 133 210 139 97 90 88 97 69 42 317 278 271 235 204 256 248 103 110 139 143 301 301 227 258 265 203 229 243 255 299 269 261 241 98 306 272 259 234 241 242 198 166 153 152 152 146 142 133 113 85 71 62 44 30 26 31
336 243 173 130 1 333 306 157 159 208 248 245 241 249 240 259 302 196 65 358 260 261 234 213 204 236 204 177 167 138 129 208 186 237 195 140 116 93 121 102 44 343 329 307 276 264 280 269 161 172 184 111 52 277 214 236 269 252 243 242 158 241 254 251 255 234 230 256 257 233 238 243 244 214 155 162 170 160 153 140 122 106 88 73 55 38 32 34
321 243 164 72 1 342 247 154 187 226 248 241 238 252 241 204 149 132 35 301 238 225 240 236 210 246 232 208 178 134 162 226 174 234 236 180 154 83 146 140 88 24 351 297 264 77 287 269 211 164 220 129 145 234 225 194 231 265 288 298 226 249 243 226 245 254 248 257 258 241 239 243 252 229 162 176 183 166 156 147 135 119 94 74 58 43 37 35
291 233 178 45 2 350 184 186 237 235 244 241 236 217 208 188 134 121 314 265 234 223 235 239 208 221 229 234 213 143 202 264 224 240 248 202 150 106 337 247 105 61 14 294 287 60 242 267 248 130 120 161 202 227 239 208 192 227 261 245 238 268 271 252 250 258 261 263 263 259 252 246 255 245 194 191 183 168 161 151 137 114 89 71 57 43 36 39
273 257 173 37 360 353 164 202 239 235 233 245 263 218 176 177 152 136 13 279 242 239 252 231 207 225 215 213 251 212 204 261 261 255 244 183 156 136 100 353 310 38 43 256 270 314 218 248 259 196 140 223 239 222 275 292 233 221 234 232 227 234 260 267 256 250 259 265 264 266 264 259 283 315 228 194 171 161 159 148 133 114 95 78 64 50 42 45
258 261 148 23 351 349 177 220 226 237 240 240 269 214 163 170 173 150 134 258 260 307 304 258 228 237 218 210 230 211 210 240 239 248 238 197 202 189 94 35 312 336 292 236 216 251 270 245 258 264 235 245 254 73 12 341 329 290 269 253 249 245 247 256 253 244 246 261 266 267 270 274 41 32 259 169 155 152 150 142 131 119 106 93 78 66 59 55
248 259 96 9 347 341 199 233 203 229 252 237 249 183 118 18 208 166 155 213 234 208 236 250 241 239 230 239 246 218 230 244 231 241 244 207 192 123 81 38 291 280 279 272 128 69 340 270 259 263 258 265 336 72 49 323 306 289 280 275 276 265 253 254 258 261 254 257 267 266 268 277 86 74 77 128 140 140 139 140 136 126 114 109 101 89 81 72
267 307 75 6 346 229 213 242 196 211 237 182 81 127 110 223 211 193 189 209 229 213 210 210 213 234 229 235 248 229 230 244 236 245 247 192 128 80 61 31 255 238 256 269 129 113 206 256 256 256 254 261 254 138 152 182 246 259 250 253 274 274 272 274 279 287 274 260 261 258 257 249 107 99 106 121 128 129 135 145 144 135 126 123 118 107 97 89
326 308 92 6 356 218 222 251 228 225 201 150 179 166 135 85 15 253 220 209 351 244 229 206 181 234 197 196 244 233 218 229 225 223 240 209 134 87 53 22 268 240 283 344 17 130 243 251 253 264 260 249 230 205 193 192 215 246 251 251 281 280 282 286 280 278 265 260 262 259 262 257 117 124 155 148 146 148 149 154 149 144 141 137 127 119 113 105
296 244 175 17 20 77 222 310 293 255 162 163 193 167 158 146 69 14 344 47 29 340 285 100 108 259 194 182 224 218 209 240 238 195 201 192 139 114 74 31 327 280 58 25 351 256 260 269 259 264 262 254 249 244 237 242 237 238 247 251 262 269 269 271 269 259 250 258 259 253 264 267 129 146 178 171 169 167 156 158 160 153 150 145 136 132 127 117
286 271 72 47 44 59 86 47 340 284 155 181 192 159 215 192 114 51 350 53 52 15 336 40 131 232 207 199 222 217 204 219 236 225 211 195 157 129 104 61 56 60 62 38 355 250 257 266 255 257 262 266 274 280 329 343 298 273 267 257 246 250 260 265 265 258 260 266 254 246 261 265 204 182 192 183 184 184 169 172 175 163 156 152 144 140 133 123
321 359 8 352 35 69 95 68 24 8 67 271 243 118 246 212 143 111 39 47 47 40 342 21 215 229 218 212 225 226 209 204 216 227 219 207 166 126 125 185 111 48 3 338 349 256 254 254 251 254 259 267 277 283 297 307 284 277 278 272 264 257 250 250 253 262 276 274 259 259 266 261 248 234 220 199 190 190 183 184 183 172 166 160 151 149 144 136
21 32 25 332 320 38 47 24 14 25 58 15 306 60 29 220 164 116 84 73 74 9 291 205 184 233 234 225 232 221 210 209 210 210 199 199 191 161 165 184 159 102 262 216 128 282 264 262 259 257 260 265 270 271 271 270 267 268 270 269 269 263 254 250 250 256 264 262 262 279 279 262 257 266 259 229 206 204 199 193 186 174 169 166 163 165 159 149
30 52 43 321 328 36 27 355 339 354 45 40 32 53 22 27 100 81 42 8 152 75 325 223 162 96 117 224 249 226 204 219 207 190 189 190 197 207 208 192 171 181 213 207 82 9 279 274 269 267 269 270 268 265 261 259 259 260 260 258 260 259 257 256 255 255 258 258 262 275 277 267 261 275 282 262 219 221 212 194 184 178 175 172 171 173 165 154
16 23 1 310 19 43 21 357 319 281 64 28 31 66 47 40 78 86 48 9 20 61 354 267 127 68 60 98 243 138 61 6 17 98 52 226 191 221 245 245 181 186 205 251 54 133 258 281 297 280 275 272 269 266 259 256 258 260 258 256 256 257 255 254 256 257 257 260 264 266 267 265 258 263 270 270 198 225 209 191 189 186 181 177 178 178 169 157
358 350 320 302 23 14 353 17 344 291 69 46 29 48 49 50 58 77 72 40 27 40 19 359 38 60 136 98 75 64 42 6 355 20 349 300 306 308 279 334 325 244 235 269 251 183 246 267 273 270 269 270 271 266 261 266 270 266 261 255 251 251 252 252 253 252 248 254 261 260 260 266 264 252 245 226 212 224 219 210 202 189 183 185 184 179 169 158
350 317 301 291 18 17 345 13 357 306 61 39 26 39 44 53 60 68 97 68 48 40 23 3 355 294 208 106 61 29 3 337 326 335 325 304 310 306 289 303 298 281 277 278 267 248 259 269 271 266 268 275 276 271 277 285 278 269 264 252 245 248 254 256 254 249 244 246 254 257 262 288 318 270 250 250 248 245 241 233 214 193 186 188 187 179 169 157